Time,TemperatureF,DewpointF,PressureIn,WindDirection,WindDirectionDegrees,WindSpeedMPH,WindSpeedGustMPH,Humidity,HourlyPrecipIn,Conditions,Clouds,dailyrainin,SoftwareType,DateUTC
2013-01-14 00:13:00,40.3,12.0,30.22,WNW,292,0.0,-999.0,32,-99.99,,,0.00,weatherlink.com 1.10,2013-01-14 08:13:00,
2013-01-14 00:28:00,40.8,11.0,30.22,NE,52,0.0,-999.0,30,-99.99,,,0.00,weatherlink.com 1.10,2013-01-14 08:28:00,
2013-01-14 00:43:00,41.1,10.0,30.22,East,101,0.0,-999.0,28,-99.99,,,0.00,weatherlink.com 1.10,2013-01-14 08:43:00,
2013-01-14 00:58:00,40.6,12.0,30.24,NNE,28,0.0,-999.0,31,-99.99,,,0.00,weatherlink.com 1.10,2013-01-14 08:58:00,
2013-01-14 01:13:00,39.9,13.0,30.24,WNW,293,0.0,-999.0,33,-99.99,,,0.00,weatherlink.com 1.10,2013-01-14 09:13:00,
2013-01-14 01:28:00,39.3,14.0,30.25,NW,326,0.0,-999.0,35,-99.99,,,0.00,weatherlink.com 1.10,2013-01-14 09:28:00,
2013-01-14 01:43:00,38.6,15.0,30.25,NW,313,0.0,-999.0,39,-99.99,,,0.00,weatherlink.com 1.10,2013-01-14 09:43:00,
2013-01-14 01:59:00,37.6,17.0,30.25,NW,313,0.0,-999.0,44,-99.99,,,0.00,weatherlink.com 1.10,2013-01-14 09:59:00,
2013-01-14 02:14:00,36.3,18.0,30.26,NW,313,0.0,-999.0,48,-99.99,,,0.00,weatherlink.com 1.10,2013-01-14 10:14:00,
2013-01-14 02:29:00,35.5,18.0,30.27,NW,312,0.0,-999.0,50,-99.99,,,0.00,weatherlink.com 1.10,2013-01-14 10:29:00,
2013-01-14 02:44:00,35.0,19.0,30.27,NW,312,0.0,-999.0,52,-99.99,,,0.00,weatherlink.com 1.10,2013-01-14 10:44:00,
2013-01-14 02:59:00,34.3,19.0,30.27,NW,313,0.0,-999.0,54,-99.99,,,0.00,weatherlink.com 1.10,2013-01-14 10:59:00,
2013-01-14 03:14:00,34.0,19.0,30.27,NW,312,0.0,-999.0,55,-99.99,,,0.00,weatherlink.com 1.10,2013-01-14 11:14:00,
2013-01-14 03:29:00,33.8,19.0,30.28,NW,313,0.0,-999.0,54,-99.99,,,0.00,weatherlink.com 1.10,2013-01-14 11:29:00,
2013-01-14 03:44:00,33.8,19.0,30.28,NW,313,0.0,-999.0,55,-99.99,,,0.00,weatherlink.com 1.10,2013-01-14 11:44:00,
2013-01-14 03:59:00,34.0,18.0,30.27,NW,313,0.0,-999.0,53,-99.99,,,0.00,weatherlink.com 1.10,2013-01-14 11:59:00,
2013-01-14 04:14:00,34.1,18.0,30.27,NW,313,0.0,-999.0,52,-99.99,,,0.00,weatherlink.com 1.10,2013-01-14 12:14:00,
2013-01-14 04:29:00,35.0,15.0,30.27,NNW,332,0.0,-999.0,45,-99.99,,,0.00,weatherlink.com 1.10,2013-01-14 12:29:00,
2013-01-14 04:44:00,36.0,14.0,30.27,ENE,68,0.0,-999.0,41,-99.99,,,0.00,weatherlink.com 1.10,2013-01-14 12:44:00,
2013-01-14 04:59:00,36.5,15.0,30.28,ENE,67,0.0,-999.0,41,-99.99,,,0.00,weatherlink.com 1.10,2013-01-14 12:59:00,
2013-01-14 05:14:00,35.8,16.0,30.28,ENE,67,0.0,-999.0,44,-99.99,,,0.00,weatherlink.com 1.10,2013-01-14 13:14:00,
2013-01-14 05:29:00,34.4,17.0,30.29,ENE,67,0.0,-999.0,50,-99.99,,,0.00,weatherlink.com 1.10,2013-01-14 13:29:00,
2013-01-14 05:44:00,33.4,18.0,30.29,ENE,67,0.0,-999.0,54,-99.99,,,0.00,weatherlink.com 1.10,2013-01-14 13:44:00,
2013-01-14 05:59:00,32.7,19.0,30.30,ENE,67,0.0,-999.0,57,-99.99,,,0.00,weatherlink.com 1.10,2013-01-14 13:59:00,
2013-01-14 06:14:00,32.2,19.0,30.31,ENE,67,0.0,-999.0,59,-99.99,,,0.00,weatherlink.com 1.10,2013-01-14 14:14:00,
2013-01-14 06:29:00,32.4,18.0,30.33,ENE,67,0.0,-999.0,56,-99.99,,,0.00,weatherlink.com 1.10,2013-01-14 14:29:00,
2013-01-14 06:44:00,32.7,18.0,30.33,ENE,67,0.0,-999.0,55,-99.99,,,0.00,weatherlink.com 1.10,2013-01-14 14:44:00,
2013-01-14 06:59:00,32.7,18.0,30.34,ENE,67,0.0,-999.0,55,-99.99,,,0.00,weatherlink.com 1.10,2013-01-14 14:59:00,
2013-01-14 07:14:00,32.8,19.0,30.34,ENE,67,0.0,-999.0,56,-99.99,,,0.00,weatherlink.com 1.10,2013-01-14 15:14:00,
2013-01-14 07:29:00,32.8,18.0,30.35,ENE,67,0.0,-999.0,55,-99.99,,,0.00,weatherlink.com 1.10,2013-01-14 15:29:00,
2013-01-14 07:44:00,33.1,18.0,30.36,ENE,67,0.0,-999.0,55,-99.99,,,0.00,weatherlink.com 1.10,2013-01-14 15:44:00,
2013-01-14 07:59:00,34.0,16.0,30.36,NE,51,0.0,-999.0,48,-99.99,,,0.00,weatherlink.com 1.10,2013-01-14 15:59:00,
2013-01-14 08:14:00,36.0,15.0,30.37,ENE,69,0.0,-999.0,42,-99.99,,,0.00,weatherlink.com 1.10,2013-01-14 16:14:00,
2013-01-14 08:29:00,37.6,15.0,30.38,NE,51,0.0,-999.0,39,-99.99,,,0.00,weatherlink.com 1.10,2013-01-14 16:29:00,
2013-01-14 08:44:00,38.6,14.0,30.38,ESE,107,0.0,-999.0,36,-99.99,,,0.00,weatherlink.com 1.10,2013-01-14 16:44:00,
2013-01-14 08:59:00,39.8,14.0,30.39,ENE,59,2.0,-999.0,35,-99.99,,,0.00,weatherlink.com 1.10,2013-01-14 16:59:00,
2013-01-14 09:14:00,40.5,13.0,30.39,ESE,111,0.0,-999.0,33,-99.99,,,0.00,weatherlink.com 1.10,2013-01-14 17:14:00,
2013-01-14 09:29:00,41.5,14.0,30.39,East,85,3.0,-999.0,32,-99.99,,,0.00,weatherlink.com 1.10,2013-01-14 17:29:00,
2013-01-14 09:44:00,41.8,14.0,30.39,NE,53,2.0,-999.0,32,-99.99,,,0.00,weatherlink.com 1.10,2013-01-14 17:44:00,
2013-01-14 09:59:00,43.2,14.0,30.39,WNW,284,3.0,-999.0,30,-99.99,,,0.00,weatherlink.com 1.10,2013-01-14 17:59:00,
2013-01-14 10:14:00,45.2,14.0,30.39,SE,130,2.0,-999.0,28,-99.99,,,0.00,weatherlink.com 1.10,2013-01-14 18:14:00,
2013-01-14 10:29:00,46.2,15.0,30.40,SW,232,0.0,-999.0,28,-99.99,,,0.00,weatherlink.com 1.10,2013-01-14 18:29:00,
2013-01-14 10:44:00,46.5,14.0,30.40,NNW,336,0.0,-999.0,27,-99.99,,,0.00,weatherlink.com 1.10,2013-01-14 18:44:00,
2013-01-14 10:59:00,47.1,15.0,30.39,NW,310,0.0,-999.0,27,-99.99,,,0.00,weatherlink.com 1.10,2013-01-14 18:59:00,
2013-01-14 11:14:00,48.0,14.0,30.39,ESE,113,1.0,-999.0,25,-99.99,,,0.00,weatherlink.com 1.10,2013-01-14 19:14:00,
2013-01-14 11:29:00,48.5,14.0,30.38,SE,128,4.0,-999.0,25,-99.99,,,0.00,weatherlink.com 1.10,2013-01-14 19:29:00,
2013-01-14 11:44:00,48.5,14.0,30.36,NE,50,6.0,-999.0,25,-99.99,,,0.00,weatherlink.com 1.10,2013-01-14 19:44:00,
2013-01-14 11:59:00,48.9,13.0,30.35,WNW,297,0.0,-999.0,24,-99.99,,,0.00,weatherlink.com 1.10,2013-01-14 19:59:00,
2013-01-14 12:14:00,49.5,13.0,30.35,West,277,3.0,-999.0,23,-99.99,,,0.00,weatherlink.com 1.10,2013-01-14 20:14:00,
2013-01-14 12:29:00,49.6,14.0,30.34,SW,214,2.0,-999.0,24,-99.99,,,0.00,weatherlink.com 1.10,2013-01-14 20:29:00,
2013-01-14 12:44:00,51.0,15.0,30.34,West,261,0.0,-999.0,24,-99.99,,,0.00,weatherlink.com 1.10,2013-01-14 20:44:00,
2013-01-14 12:59:00,51.6,15.0,30.35,West,276,0.0,-999.0,23,-99.99,,,0.00,weatherlink.com 1.10,2013-01-14 20:59:00,
2013-01-14 13:15:00,51.7,15.0,30.34,West,277,1.0,-999.0,23,-99.99,,,0.00,weatherlink.com 1.10,2013-01-14 21:15:00,
2013-01-14 13:30:00,51.3,16.0,30.34,ESE,115,0.0,-999.0,25,-99.99,,,0.00,weatherlink.com 1.10,2013-01-14 21:30:00,
2013-01-14 13:44:00,51.6,16.0,30.35,ENE,69,0.0,-999.0,24,-99.99,,,0.00,weatherlink.com 1.10,2013-01-14 21:44:00,
2013-01-14 13:59:00,52.0,16.0,30.35,ESE,123,2.0,-999.0,24,-99.99,,,0.00,weatherlink.com 1.10,2013-01-14 21:59:00,
2013-01-14 14:15:00,52.3,15.0,30.35,East,79,0.0,-999.0,23,-99.99,,,0.00,weatherlink.com 1.10,2013-01-14 22:15:00,
2013-01-14 14:30:00,53.2,16.0,30.36,SE,133,1.0,-999.0,23,-99.99,,,0.00,weatherlink.com 1.10,2013-01-14 22:30:00,
2013-01-14 14:45:00,53.5,16.0,30.36,WSW,238,1.0,-999.0,23,-99.99,,,0.00,weatherlink.com 1.10,2013-01-14 22:45:00,
2013-01-14 15:00:00,54.1,17.0,30.36,ENE,60,1.0,-999.0,23,-99.99,,,0.00,weatherlink.com 1.10,2013-01-14 23:00:00,
2013-01-14 15:15:00,53.3,17.0,30.36,East,91,1.0,-999.0,24,-99.99,,,0.00,weatherlink.com 1.10,2013-01-14 23:15:00,
2013-01-14 15:30:00,53.5,16.0,30.37,East,82,1.0,-999.0,23,-99.99,,,0.00,weatherlink.com 1.10,2013-01-14 23:30:00,
2013-01-14 16:00:00,51.9,16.0,30.36,SSE,149,1.0,-999.0,24,-99.99,,,0.00,weatherlink.com 1.10,2013-01-15 00:00:00,
2013-01-14 16:15:00,51.3,16.0,30.37,SE,126,0.0,-999.0,25,-99.99,,,0.00,weatherlink.com 1.10,2013-01-15 00:15:00,
2013-01-14 16:30:00,51.1,18.0,30.36,WNW,285,0.0,-999.0,27,-99.99,,,0.00,weatherlink.com 1.10,2013-01-15 00:30:00,
2013-01-14 16:45:00,50.4,17.0,30.36,East,101,0.0,-999.0,27,-99.99,,,0.00,weatherlink.com 1.10,2013-01-15 00:45:00,
2013-01-14 17:00:00,49.5,17.0,30.36,ENE,71,0.0,-999.0,27,-99.99,,,0.00,weatherlink.com 1.10,2013-01-15 01:00:00,
2013-01-14 17:15:00,48.3,20.0,30.36,SE,135,0.0,-999.0,32,-99.99,,,0.00,weatherlink.com 1.10,2013-01-15 01:15:00,
2013-01-14 17:30:00,47.0,22.0,30.36,SE,135,0.0,-999.0,38,-99.99,,,0.00,weatherlink.com 1.10,2013-01-15 01:30:00,
2013-01-14 17:45:00,45.5,23.0,30.36,SE,135,0.0,-999.0,42,-99.99,,,0.00,weatherlink.com 1.10,2013-01-15 01:45:00,
2013-01-14 18:00:00,44.3,23.0,30.37,ENE,66,0.0,-999.0,44,-99.99,,,0.00,weatherlink.com 1.10,2013-01-15 02:00:00,
2013-01-14 18:15:00,43.5,24.0,30.36,ENE,66,0.0,-999.0,47,-99.99,,,0.00,weatherlink.com 1.10,2013-01-15 02:15:00,
2013-01-14 18:30:00,42.6,23.0,30.36,ENE,66,0.0,-999.0,47,-99.99,,,0.00,weatherlink.com 1.10,2013-01-15 02:30:00,
2013-01-14 18:45:00,42.2,22.0,30.36,ENE,67,0.0,-999.0,44,-99.99,,,0.00,weatherlink.com 1.10,2013-01-15 02:45:00,
2013-01-14 19:00:00,42.2,22.0,30.36,ENE,67,0.0,-999.0,45,-99.99,,,0.00,weatherlink.com 1.10,2013-01-15 03:00:00,
2013-01-14 19:15:00,41.6,23.0,30.37,ENE,67,0.0,-999.0,48,-99.99,,,0.00,weatherlink.com 1.10,2013-01-15 03:15:00,
2013-01-14 19:30:00,41.2,23.0,30.37,ENE,67,0.0,-999.0,49,-99.99,,,0.00,weatherlink.com 1.10,2013-01-15 03:30:00,
2013-01-14 19:45:00,40.8,25.0,30.37,ENE,67,0.0,-999.0,54,-99.99,,,0.00,weatherlink.com 1.10,2013-01-15 03:45:00,
2013-01-14 20:03:00,40.5,25.0,30.37,ENE,67,0.0,-999.0,54,-99.99,,,0.00,weatherlink.com 1.10,2013-01-15 04:03:00,
2013-01-14 20:16:00,40.3,25.0,30.38,ENE,67,0.0,-999.0,54,-99.99,,,0.00,weatherlink.com 1.10,2013-01-15 04:16:00,
2013-01-14 20:31:00,40.3,25.0,30.38,ENE,67,0.0,-999.0,55,-99.99,,,0.00,weatherlink.com 1.10,2013-01-15 04:31:00,
2013-01-14 20:46:00,40.2,25.0,30.38,ENE,67,0.0,-999.0,55,-99.99,,,0.00,weatherlink.com 1.10,2013-01-15 04:46:00,
2013-01-14 21:01:00,40.3,25.0,30.37,ENE,67,0.0,-999.0,54,-99.99,,,0.00,weatherlink.com 1.10,2013-01-15 05:01:00,
2013-01-14 21:16:00,40.3,25.0,30.37,ENE,67,0.0,-999.0,55,-99.99,,,0.00,weatherlink.com 1.10,2013-01-15 05:16:00,
2013-01-14 21:31:00,40.1,25.0,30.37,ENE,67,0.0,-999.0,56,-99.99,,,0.00,weatherlink.com 1.10,2013-01-15 05:31:00,
2013-01-14 21:46:00,39.8,25.0,30.38,ENE,67,0.0,-999.0,55,-99.99,,,0.00,weatherlink.com 1.10,2013-01-15 05:46:00,
2013-01-14 22:01:00,39.8,26.0,30.38,ENE,67,0.0,-999.0,57,-99.99,,,0.00,weatherlink.com 1.10,2013-01-15 06:01:00,
2013-01-14 22:16:00,39.8,26.0,30.38,ENE,67,0.0,-999.0,58,-99.99,,,0.00,weatherlink.com 1.10,2013-01-15 06:16:00,
2013-01-14 22:31:00,39.5,26.0,30.38,ENE,67,0.0,-999.0,59,-99.99,,,0.00,weatherlink.com 1.10,2013-01-15 06:31:00,
2013-01-14 22:46:00,39.2,26.0,30.38,ENE,67,0.0,-999.0,59,-99.99,,,0.00,weatherlink.com 1.10,2013-01-15 06:46:00,
2013-01-14 23:01:00,39.2,26.0,30.38,ENE,67,0.0,-999.0,59,-99.99,,,0.00,weatherlink.com 1.10,2013-01-15 07:01:00,
2013-01-14 23:16:00,38.9,25.0,30.38,ENE,67,0.0,-999.0,59,-99.99,,,0.00,weatherlink.com 1.10,2013-01-15 07:16:00,
2013-01-14 23:31:00,38.6,25.0,30.39,ENE,67,0.0,-999.0,59,-99.99,,,0.00,weatherlink.com 1.10,2013-01-15 07:31:00,
2013-01-14 23:46:00,38.3,25.0,30.38,ENE,67,0.0,-999.0,59,-99.99,,,0.00,weatherlink.com 1.10,2013-01-15 07:46:00,